STARLINK-1916 (46766 NORAD) Tracking and Keplerian Element Data

This shows tracking and keplerian element data for the satellite.

Feedback or suggestion? Click here.




ElementValue
Catalog46766
NameSTARLINK-1916
Epoch Orbit180
Epoch Day20.91667824
Epoch Year2021
RAAN108.3204
Inclination53.0564
Eccentricity0.0001283
Argument of Perigee103.8525
Mean Anonmoly148.5612
Mean Motion15.06414201
Decay Rate-0.00036113
L11 46766U 20074AD 21020.91667824 -.00036113 00000-0 -24169-2 0 9990
L22 46766 53.0564 108.3204 0001283 103.8525 148.5612 15.06414201 1800

Live tracking and technical data element details for STARLINK-1916 (NORAD 46766). STARLINK-1916 can be tracked NOW for your location showing map with azimuth and elevation plus other details from your city location.

Track the satellite on the map from your city or location and see movement details for azimuth, elevation, latitude, longitude, range, height, and movement on the map or in text.







IsCatalogInMostPopularTable: catalog: 46766, numindb: 31
Update: records affected: 1



GetName: 46766 STARLINK-1916

Hit Count: updated at: Fri, 22 Jan 2021 19:13:38 GMT